Location: Cave
(41.8160°N, 12.9350°E)
Time: 19:45:56
(UTC+01:00)

ISS - Pass Details

Date: 25 February 2019
Orbit: 406 x 411 km, 51.6° (Epoch: 23 March)

Event Time Altitude Azimuth Distance (km) Brightness Sun altitude
Exits shadow 04:49:29 17° 151° (SSE) 1,097 -1.5 -23.2°
Maximum altitude 04:50:12 19° 133° (SE) 1,053 -1.3 -23.1°
Drops below altitude 10° 04:52:34 10° 87° (E) 1,463 0.1 -22.6°
Sets 04:55:03 0° 68° (ENE) 2,328 1.4 -22.2°
